Location: Star Dogged Moon Observatory
(29.7756°N, 82.0783°W)
Time: 15:09:33
(UTC-04:00)

Amateur Radio Satellites - All Passes

Search period start: 01 September 2014 14:39
Search period end: 02 September 2014 14:39
Location: Star Dogged Moon Observatory, 29.7756°N, 82.0783°W

Satellite Date Start Highest point End Downlink Frequencies (MHz)
Time Altitude Azimuth
MaSat-1 01 Sep 14:51:24 14:52:56 11° 305° (NW) 14:54:29 437.345 MHz
SO-50 01 Sep 14:53:23 14:55:34 13° 253° (WSW) 14:57:46 436.795 FM
RS-15 01 Sep 14:56:03 14:59:21 12° 30° (NNE) 15:02:40 29.354 - 29.394 USB, Beacon 29.352 USB
Oscar 16 01 Sep 15:00:04 15:04:46 36° 261° (W) 15:09:31 437.025 USB, Beacon 2401.1428
UOSAT-12 01 Sep 15:00:39 15:05:14 51° 60° (ENE) 15:09:44 437.025 FM, 437.400 FM
ITAMSAT 1 01 Sep 15:00:49 15:05:59 87° 76° (ENE) 15:11:11 435.822 SSB
Uribyol 2 01 Sep 15:10:22 15:15:29 70° 258° (WSW) 15:20:38 436.500 FM
PANSAT 01 Sep 15:13:29 15:17:13 47° 193° (SSW) 15:20:56 not established
TMSAT-1 01 Sep 15:19:53 15:24:45 39° 72° (ENE) 15:29:38 436.925 FM
AO-27 01 Sep 15:30:40 15:35:35 44° 260° (W) 15:40:32 436.795 MHz FM
Sapphire 01 Sep 15:37:02 15:38:32 11° 103° (ESE) 15:40:03 437.095 MHz 1200 baud AX-25 AFSK
AO-7 01 Sep 15:38:09 15:44:11 23° 61° (ENE) 15:50:11 29.400 - 29.500 MHz
JAS-1B 01 Sep 15:40:26 15:50:07 59° 259° (WSW) 15:59:06 435.800 - 435.900 CW/SSB
PCSat 01 Sep 16:03:10 16:07:31 25° 107° (ESE) 16:11:52 145.825 MHz
Gurwin Techsat 1B 01 Sep 16:09:10 16:14:12 45° 260° (W) 16:19:16 435.225 FM
AO-Echo 01 Sep 16:19:46 16:21:34 12° 266° (W) 16:23:22 ?
UOSAT-12 01 Sep 16:43:06 16:44:51 12° 253° (WSW) 16:46:36 437.025 FM, 437.400 FM
PANSAT 01 Sep 16:54:29 16:57:02 17° 204° (SSW) 16:59:34 not established
TMSAT-1 01 Sep 17:01:04 17:04:43 19° 265° (W) 17:08:23 436.925 FM
RS-15 01 Sep 17:04:26 17:15:10 50° 57° (ENE) 17:26:18 29.354 - 29.394 USB, Beacon 29.352 USB
OPAL 01 Sep 17:05:20 17:09:16 21° 98° (E) 17:13:09 ?
ISS 01 Sep 17:07:34 17:09:51 17° 37° (NE) 17:12:08 145.800 FM
Uosat F 01 Sep 17:08:12 17:13:13 88° 77° (ENE) 17:18:14 435.120 FM
Sapphire 01 Sep 17:15:57 17:21:18 66° 295° (WNW) 17:26:41 437.095 MHz 1200 baud AX-25 AFSK
AO-7 01 Sep 17:27:57 17:36:13 66° 256° (WSW) 17:44:30 29.400 - 29.500 MHz
JAS-2 01 Sep 17:34:44 17:38:28 17° 69° (ENE) 17:41:58 435.800 - 435.900 CW/SSB, 435.910 FM
PCSat 01 Sep 17:45:55 17:50:42 32° 300° (WNW) 17:55:32 145.825 MHz
Hamsat 01 Sep 18:34:11 18:38:25 61° 76° (ENE) 18:42:42 145.90 MHz
OPAL 01 Sep 18:43:25 18:48:07 35° 290° (WNW) 18:52:45 ?
ISS 01 Sep 18:43:37 18:46:38 32° 231° (SW) 18:49:39 145.800 FM
JAS-2 01 Sep 19:17:01 19:23:14 53° 259° (WSW) 19:28:46 435.800 - 435.900 CW/SSB, 435.910 FM
RS-15 01 Sep 19:17:10 19:27:10 39° 253° (WSW) 19:37:36 29.354 - 29.394 USB, Beacon 29.352 USB
SO-67 01 Sep 19:38:35 19:41:50 39° 76° (ENE) 19:45:05 435.3500 MHz FM
STRAND 1 01 Sep 20:30:12 20:35:15 66° 285° (WNW) 20:40:19 ?
HO-68 01 Sep 20:45:53 20:51:43 28° 66° (ENE) 20:57:32 435.675 MHz FM
UKube-1 01 Sep 22:06:05 22:10:23 65° 76° (ENE) 22:14:41 145.840 MHz, 145.915 MHz
Oscar 11 01 Sep 22:10:08 22:14:12 41° 74° (ENE) 22:18:17 145.825 FM, Beacon 2401.500 USB
AO-40 01 Sep 22:21:50 05:14:28 54° 169° (SSE) 06:49:08 Beacon 2401.320
HO-68 01 Sep 22:32:21 22:39:03 44° 259° (W) 22:45:48 435.675 MHz FM
Saudisat 1A 01 Sep 22:40:57 22:45:18 63° 299° (WNW) 22:49:40 436.775 MHz
FUNcube-1 01 Sep 22:42:11 22:45:56 33° 73° (ENE) 22:49:45 145.950 - 145.970 MHz USB
MaSat-1 01 Sep 23:11:35 23:15:39 42° 64° (ENE) 23:19:08 437.345 MHz
KITSAT 1 01 Sep 23:22:33 23:30:35 73° 112° (ESE) 23:38:39 435.175 FM
Oscar 11 01 Sep 23:48:54 23:50:30 12° 266° (W) 23:52:06 145.825 FM, Beacon 2401.500 USB
FUNcube-1 02 Sep 00:20:21 00:22:24 13° 266° (W) 00:24:27 145.950 - 145.970 MHz USB
KITSAT 1 02 Sep 01:20:45 01:26:37 22° 309° (NW) 01:32:32 435.175 FM
Oscar 16 02 Sep 01:41:40 01:42:59 11° 93° (E) 01:44:17 437.025 USB, Beacon 2401.1428
Sapphire 02 Sep 02:10:30 02:15:08 28° 59° (ENE) 02:19:44 437.095 MHz 1200 baud AX-25 AFSK
PCSat 02 Sep 02:39:12 02:44:32 57° 64° (ENE) 02:49:50 145.825 MHz
Oscar 19 02 Sep 02:42:13 02:47:17 53° 101° (E) 02:52:19 437.125 CW, 437.150 USB
AO-Echo 02 Sep 02:51:28 02:55:27 27° 98° (E) 02:59:28 ?
Gurwin Techsat 1B 02 Sep 02:55:39 02:56:18 10° 93° (E) 02:56:56 435.225 FM
Oscar 16 02 Sep 03:17:29 03:22:37 62° 285° (WNW) 03:27:43 437.025 USB, Beacon 2401.1428
ITAMSAT 1 02 Sep 03:19:57 03:25:00 52° 101° (E) 03:30:03 435.822 SSB
SO-50 02 Sep 03:19:59 03:24:22 69° 115° (ESE) 03:28:52 436.795 FM
Uribyol 2 02 Sep 03:29:11 03:34:23 71° 102° (ESE) 03:39:34 436.500 FM
JAS-1B 02 Sep 03:35:28 03:41:41 63° 101° (E) 03:47:18 435.800 - 435.900 CW/SSB
TMSAT-1 02 Sep 03:42:13 03:46:34 26° 97° (E) 03:50:54 436.925 FM
AO-27 02 Sep 03:49:33 03:54:44 75° 284° (WNW) 03:59:54 436.795 MHz FM
Sapphire 02 Sep 03:53:47 03:58:26 30° 253° (WSW) 04:03:03 437.095 MHz 1200 baud AX-25 AFSK
OPAL 02 Sep 04:14:56 04:18:31 20° 66° (ENE) 04:22:07 ?
Oscar 19 02 Sep 04:23:28 04:26:06 14° 294° (WNW) 04:28:44 437.125 CW, 437.150 USB
PCSat 02 Sep 04:24:49 04:27:22 14° 256° (WSW) 04:29:55 145.825 MHz
AO-Echo 02 Sep 04:30:27 04:34:02 22° 290° (WNW) 04:37:39 ?
Gurwin Techsat 1B 02 Sep 04:31:19 04:36:35 67° 285° (WNW) 04:41:50 435.225 FM
ITAMSAT 1 02 Sep 05:01:16 05:04:00 15° 293° (WNW) 05:06:44 435.822 SSB
SO-50 02 Sep 05:04:45 05:05:23 10° 311° (NW) 05:06:00 436.795 FM
UOSAT-12 02 Sep 05:05:49 05:10:19 64° 115° (ESE) 05:14:56 437.025 FM, 437.400 FM
Uribyol 2 02 Sep 05:12:09 05:13:11 11° 295° (WNW) 05:14:14 436.500 FM
TMSAT-1 02 Sep 05:21:52 05:26:22 29° 289° (WNW) 05:30:52 436.925 FM
Uosat F 02 Sep 05:22:11 05:26:58 45° 100° (E) 05:31:44 435.120 FM
JAS-1B 02 Sep 05:28:39 05:31:28 13° 299° (WNW) 05:34:10 435.800 - 435.900 CW/SSB
AO-7 02 Sep 05:36:21 05:44:34 64° 104° (ESE) 05:52:44 29.400 - 29.500 MHz
OPAL 02 Sep 05:52:26 05:57:03 37° 259° (W) 06:01:46 ?
Hamsat 02 Sep 06:27:09 06:30:03 18° 95° (E) 06:32:56 145.90 MHz
JAS-2 02 Sep 06:32:18 06:36:40 24° 98° (E) 06:41:22 435.800 - 435.900 CW/SSB, 435.910 FM
UOSAT-12 02 Sep 06:49:09 06:50:52 12° 310° (NW) 06:52:37 437.025 FM, 437.400 FM
Uosat F 02 Sep 07:02:27 07:05:20 16° 293° (WNW) 07:08:13 435.120 FM
Saudisat 1A 02 Sep 07:14:13 07:17:23 19° 54° (NE) 07:20:32 436.775 MHz
RS-15 02 Sep 07:19:54 07:30:46 58° 111° (ESE) 07:41:21 29.354 - 29.394 USB, Beacon 29.352 USB
KITSAT 1 02 Sep 07:25:38 07:28:55 13° 44° (NE) 07:32:12 435.175 FM
AO-7 02 Sep 07:30:35 07:36:38 23° 299° (WNW) 07:42:42 29.400 - 29.500 MHz
STRAND 1 02 Sep 07:40:00 07:45:05 86° 257° (WSW) 07:50:12 ?
Hamsat 02 Sep 08:02:17 08:05:58 28° 287° (WNW) 08:09:36 145.90 MHz
JAS-2 02 Sep 08:16:55 08:21:42 33° 287° (WNW) 08:26:54 435.800 - 435.900 CW/SSB, 435.910 FM
SO-67 02 Sep 08:40:49 08:44:15 65° 282° (WNW) 08:47:39 435.3500 MHz FM
Saudisat 1A 02 Sep 08:53:03 08:56:58 32° 248° (WSW) 09:00:52 436.775 MHz
KITSAT 1 02 Sep 09:17:41 09:25:45 70° 63° (ENE) 09:33:45 435.175 FM
RS-15 02 Sep 09:33:47 09:43:27 34° 309° (NW) 09:53:04 29.354 - 29.394 USB, Beacon 29.352 USB
ISS 02 Sep 09:44:52 09:48:07 57° 315° (NW) 09:51:24 145.800 FM
PANSAT 02 Sep 09:49:14 09:52:07 20° 157° (SSE) 09:55:01 not established
UKube-1 02 Sep 10:01:26 10:04:24 18° 96° (E) 10:07:21 145.840 MHz, 145.915 MHz
Oscar 11 02 Sep 10:05:44 10:07:32 12° 94° (E) 10:09:20 145.825 FM, Beacon 2401.500 USB
HO-68 02 Sep 10:06:13 10:13:09 51° 102° (ESE) 10:20:03 435.675 MHz FM
FUNcube-1 02 Sep 10:38:59 10:40:44 12° 94° (E) 10:42:29 145.950 - 145.970 MHz USB
KITSAT 1 02 Sep 11:15:10 11:20:19 19° 257° (WSW) 11:25:28 435.175 FM
PANSAT 02 Sep 11:28:12 11:31:59 53° 169° (SSE) 11:35:46 not established
UKube-1 02 Sep 11:36:51 11:40:33 28° 288° (WNW) 11:44:14 145.840 MHz, 145.915 MHz
Oscar 11 02 Sep 11:39:44 11:43:49 40° 286° (WNW) 11:47:52 145.825 FM, Beacon 2401.500 USB
HO-68 02 Sep 11:54:54 12:00:22 24° 295° (WNW) 12:05:51 435.675 MHz FM
SO-50 02 Sep 11:58:43 12:01:23 15° 52° (NE) 12:04:03 436.795 FM
FUNcube-1 02 Sep 12:12:52 12:17:15 47° 285° (WNW) 12:21:40 145.950 - 145.970 MHz USB
MaSat-1 02 Sep 12:52:04 12:56:43 66° 109° (ESE) 13:01:47 437.345 MHz
PANSAT 02 Sep 13:08:13 13:12:04 74° 181° (S) 13:15:56 not established
Oscar 10/S400 02 Sep 13:27:35 04:42:22 49° 237° (WSW) 14:14:31 145.825 - 145.975 CW/USB, Beacon 145.810 USB
SO-50 02 Sep 13:37:31 13:42:13 55° 246° (WSW) 13:46:58 436.795 FM
UOSAT-12 02 Sep 13:43:17 13:45:13 12° 50° (NE) 13:47:09 437.025 FM, 437.400 FM
Oscar 19 02 Sep 13:53:13 13:58:02 41° 73° (ENE) 14:02:52 437.125 CW, 437.150 USB
AO-Echo 02 Sep 13:59:09 14:02:48 20° 70° (ENE) 14:06:22 ?
JAS-1B 02 Sep 14:10:13 14:19:05 41° 69° (ENE) 14:27:10 435.800 - 435.900 CW/SSB
Oscar 16 02 Sep 14:28:14 14:33:22 80° 257° (WSW) 14:38:34 437.025 USB, Beacon 2401.1428
MaSat-1 02 Sep 14:32:08 14:34:13 13° 304° (NW) 14:36:21 437.345 MHz
